"TOA5","AWS1","CR1000","7964","CR1000.Std.14","CPU:AWS1_114.CR1","64363","TBL110"
"TIMESTAMP","RECORD","Wind_spd_WVc(1)","Wind_spd_WVc(2)","Air_Temp_Avg","Humidity_Avg","SW_upper_Wm2_Avg","Rain_Tot","Press_Avg","Issui_Tot","Depth_cm","SR50A_Raw","Quality","Ground_Temp_Avg(1)","Ground_Temp_Avg(2)","SW_lower_Wm2_Avg","Albedo_Avg","SWC_per(1)","SWC_per(2)","Period(1)","Period(2)"
"TS","RN","","","","","","","","","","","","","","","","","","",""
"","","WVc","WVc","Avg","Avg","Avg","Tot","Avg","Tot","Smp","Smp","Smp","Avg","Avg","Avg","Avg","Smp","Smp","Smp","Smp"
"2018-06-14 00:00:00",344941,0.256,8.29,9.05,100,0,0,861.6419,0,15.51,2.976,234,17.68,16.45,0.3752928,0,49.73,57.1,33.23,35.01
"2018-06-14 00:10:00",344942,0.202,14.57,9.06,100,0,0,861.6606,0,15.73,2.974,229,17.65,16.45,0.4549004,0,49.73,57.1,33.23,35.01
"2018-06-14 00:20:00",344943,0.181,331.3,8.91,100,0,0,861.8046,0,16.4,2.969,230,17.61,16.46,0.2843127,0,49.73,57.1,33.23,35.01
"2018-06-14 00:30:00",344944,0.271,327,8.66,100,0,0,861.4998,0,15.66,2.977,238,17.55,16.46,0.1023526,0,49.73,57.04,33.23,34.99
"2018-06-14 00:40:00",344945,0.158,5.828,8.73,100,0,0,861.5979,0,16.43,2.969,233,17.55,16.46,0.4473187,0,49.73,57.04,33.23,34.99
"2018-06-14 00:50:00",344946,0.151,355.4,8.69,100,0,0,861.756,0,16.1,2.972,224,17.53,16.46,0.3904561,0,49.73,57.04,33.23,34.99
"2018-06-14 01:00:00",344947,0.264,25,8.74,100,0,0,861.8713,0,16.1,2.972,230,17.46,16.46,0.4549004,0,49.73,57.04,33.23,34.99
"2018-06-14 01:10:00",344948,0.151,25.79,8.6,100,0,0,861.6981,0,16.14,2.972,229,17.46,16.45,0.4056195,0,49.73,57.04,33.23,34.99
"2018-06-14 01:20:00",344949,0.356,201.3,8.78,100,0.003931627,0,861.382,0,15.49,2.978,234,17.38,16.46,0.4965996,0.032,49.73,57.04,33.23,34.99
"2018-06-14 01:30:00",344950,0.298,214.8,8.82,100,0,0,861.3751,0,15.86,2.973,239,17.39,16.46,0.462482,0,49.73,57.04,33.23,34.99
"2018-06-14 01:40:00",344951,0.084,206.1,8.85,100,0,0,861.4689,0,16.61,2.967,241,17.39,16.46,0.4890179,0,49.73,57.04,33.23,34.99
"2018-06-14 01:50:00",344952,0.064,30.36,8.81,100,0,0,861.463,0,-19.51,3.322,176,17.3,16.46,0.4549004,0,49.73,57.04,33.23,34.99
"2018-06-14 02:00:00",344953,0.13,192.1,8.69,100,0,0,861.3656,0,15.82,2.975,227,17.28,16.46,0.4359462,0,49.68,57.04,33.22,34.99
"2018-06-14 02:10:00",344954,0.099,325.6,8.65,100,0,0,861.3622,0,15.78,2.976,236,17.28,16.46,0.4549004,0,49.73,57.04,33.23,34.99
"2018-06-14 02:20:00",344955,0.112,7.641,8.57,100,0,0,861.3658,0,16.14,2.972,235,17.26,16.46,0.3790836,0,49.73,57.04,33.23,34.99
"2018-06-14 02:30:00",344956,0.076,29.54,8.52,100,0,0,861.5623,0,15.84,2.975,235,17.2,16.46,0.4473187,0,49.73,56.98,33.23,34.98
"2018-06-14 02:40:00",344957,0.24,75.14,8.6,100,0,0,861.6299,0,15.99,2.974,214,17.23,16.46,0.4056195,0,49.73,56.98,33.23,34.98
"2018-06-14 02:50:00",344958,0.264,114.4,8.51,100,0,0,861.6113,0,16.08,2.974,224,17.15,16.46,0.4511095,0,49.73,56.98,33.23,34.98
"2018-06-14 03:00:00",344959,0.371,177.2,8.37,100,0,0,861.5476,0,16.16,2.973,233,17.13,16.46,0.4207829,0,49.73,56.98,33.23,34.98
"2018-06-14 03:10:00",344960,0.331,172.5,8.35,100,0,0,861.3588,0,15.67,2.978,234,17.15,16.46,0.4511095,0,49.73,56.98,33.23,34.98
"2018-06-14 03:20:00",344961,0.275,199.9,8.38,100,0,0,861.3502,0,15.6,2.979,232,17.08,16.48,0.4549004,0,49.73,56.98,33.23,34.98
"2018-06-14 03:30:00",344962,0.064,193.6,8.26,100,0,0,861.384,0,15.97,2.976,223,17.04,16.47,0.4549004,0,49.73,56.98,33.23,34.98
"2018-06-14 03:40:00",344963,0.019,170.3,8.2,100,0,0,861.391,0,16.1,2.975,225,17.06,16.44,0.4549004,0,49.73,56.98,33.23,34.98
"2018-06-14 03:50:00",344964,0.035,278.9,8.14,100,0,0,861.4074,0,15.92,2.977,232,17.04,16.39,0.4549004,0,49.73,56.98,33.23,34.98
"2018-06-14 04:00:00",344965,0.034,316.8,8.06,100,0,0,861.5711,0,15.76,2.979,232,17.01,16.37,0.4549004,0,49.73,56.98,33.23,34.98
"2018-06-14 04:10:00",344966,0.025,37.61,8.12,100,0,0,861.8815,0,15.79,2.978,233,16.96,16.37,0.4549004,0,49.73,56.98,33.23,34.98
"2018-06-14 04:20:00",344967,0.008,116.7,8.18,100,0.2752139,0,861.9919,0,16.67,2.97,245,16.95,16.37,0.5610438,0.812,49.73,56.98,33.23,34.98
"2018-06-14 04:30:00",344968,0.233,139.4,8.06,100,1.482223,0,861.9748,0,-13.28,3.266,189,16.91,16.37,0.7922848,0.551,49.73,56.98,33.23,34.98
"2018-06-14 04:40:00",344969,0.158,200.7,7.75,100,1.364275,0,862.1628,0,17.69,2.962,242,16.87,16.37,0.7126772,0.535,49.73,56.98,33.23,34.98
"2018-06-14 04:50:00",344970,0.134,114.9,7.528,100,7.190946,0,862.4059,0,-46.2,3.593,239,16.89,16.37,1.956072,0.296,49.73,56.98,33.23,34.98
"2018-06-14 05:00:00",344971,0.165,146.8,7.522,100,16.83523,0,862.2155,0,-17.39,3.309,179,16.85,16.37,3.567177,0.213,49.73,56.98,33.23,34.98
"2018-06-14 05:10:00",344972,0.313,179.8,7.454,100,21.8048,0,862.2457,0,16.48,2.974,241,16.8,16.39,4.313972,0.198,49.79,56.93,33.24,34.97
"2018-06-14 05:20:00",344973,0.18,182.2,7.684,100,29.1137,0,862.1252,0,16.89,2.969,241,16.81,16.41,5.379197,0.186,49.73,56.98,33.23,34.98
"2018-06-14 05:30:00",344974,0.213,189.6,8.81,100,40.89678,0,862.074,0,15.68,2.972,242,16.74,16.41,8.260233,0.202,49.73,56.93,33.23,34.97
"2018-06-14 05:40:00",344975,0.347,314.4,8.86,100,28.3431,0,862.157,0,16.55,2.971,227,16.7,16.41,5.083511,0.179,49.73,56.93,33.23,34.97
"2018-06-14 05:50:00",344976,0.336,340.8,7.74,100,56.83167,0,862.1635,0,16.02,2.978,217,16.72,16.39,10.00402,0.171,49.73,56.93,33.23,34.97
"2018-06-14 06:00:00",344977,0.084,309.5,7.92,100,108.9257,0,862.1804,0,-13.77,3.27,172,16.72,16.37,15.62204,0.161,49.73,56.93,33.23,34.97
"2018-06-14 06:10:00",344978,0.166,332.5,8.48,100,96.00246,0,862.2373,0,15.96,2.974,231,16.67,16.34,22.12332,0.265,49.73,56.93,33.23,34.97
"2018-06-14 06:20:00",344979,0.506,339.7,8.36,100,79.30091,0,862.3237,0,16.55,2.968,217,16.66,16.33,28.78003,0.418,49.73,56.93,33.23,34.97
"2018-06-14 06:30:00",344980,0.204,134.4,9.12,100,130.6362,0,862.1899,0,16.82,2.961,212,16.63,16.33,33.53374,0.323,49.73,56.93,33.23,34.97
"2018-06-14 06:40:00",344981,0,0,10.04,100,139.5531,0,862.2906,0,16.45,2.959,215,16.62,16.34,35.74379,0.339,49.73,56.93,33.23,34.97
"2018-06-14 06:50:00",344982,0,0,11.04,100,53.26568,0,862.326,0,16.3,2.955,234,16.56,16.32,38.2647,0.729,49.79,56.93,33.24,34.97
"2018-06-14 07:00:00",344983,0.49,2.823,11.04,99.4,156.4866,0,862.3823,0,-19.39,3.315,183,16.54,16.33,40.96757,0.329,49.73,56.93,33.23,34.97
"2018-06-14 07:10:00",344984,0.778,333.1,9.55,100,266.6429,0,862.5438,0,16.43,2.966,212,16.5,16.3,48.42793,0.182,49.79,56.93,33.24,34.97
"2018-06-14 07:20:00",344985,0.503,10.82,9.46,100,128.4773,0,862.5197,0,16.5,2.963,218,16.5,16.31,40.9068,0.34,49.73,56.93,33.23,34.97
"2018-06-14 07:30:00",344986,0.579,357.8,10.06,100,125.1145,0,862.6138,0,16.4,2.96,226,16.46,16.31,43.939,0.387,49.73,56.93,33.23,34.97
"2018-06-14 07:40:00",344987,0.938,0.271,10.2,100,283.4331,0,862.75,0,18.47,2.941,274,16.4,16.3,49.77647,0.244,49.73,56.93,33.23,34.97
"2018-06-14 07:50:00",344988,0.282,139.6,11.25,98.7,635.9527,0,862.6045,0,-12.33,3.234,181,16.4,16.28,61.99763,0.097,49.79,56.93,33.24,34.97
"2018-06-14 08:00:00",344989,0.214,140.9,12.6,91.2,673.5692,0,862.6003,0,17.5,2.934,222,16.37,16.29,85.19636,0.126,49.79,56.93,33.24,34.97
"2018-06-14 08:10:00",344990,0.281,2.015,13.94,83.4,713.5964,0,862.4865,0,17.27,2.932,264,16.37,16.22,103.3338,0.145,49.79,56.93,33.24,34.97
"2018-06-14 08:20:00",344991,0.197,325.9,14.4,80.4,746.3759,0,862.516,0,15.78,2.944,235,16.28,16.21,115.8856,0.155,49.79,56.93,33.24,34.97
"2018-06-14 08:30:00",344992,0.361,323.9,14.57,77.95,780.1119,0,862.3864,0,16.65,2.936,251,16.24,16.13,124.6187,0.16,49.73,56.93,33.23,34.97
"2018-06-14 08:40:00",344993,0.368,334,14.85,76.23,813.684,0,862.3098,0,-21.53,3.305,193,16.25,16.11,130.9668,0.161,49.79,56.93,33.24,34.97
"2018-06-14 08:50:00",344994,0.535,347,15.35,73.33,846.7139,0,862.266,0,16.21,2.936,236,16.29,16.14,135.8218,0.16,49.79,56.93,33.24,34.97
"2018-06-14 09:00:00",344995,0.375,322.6,15.63,72.63,878.626,0,862.2049,0,-16.19,3.25,176,16.28,16.13,139.6118,0.159,49.73,56.93,33.23,34.97
"2018-06-14 09:10:00",344996,0.434,347.5,15.99,70.42,907.6861,0,862.0808,0,17.71,2.919,233,16.16,16.12,142.5355,0.157,49.73,56.93,33.23,34.97
"2018-06-14 09:20:00",344997,0.455,0.224,16.2,70.31,935.6337,0,862.2385,0,-17.15,3.256,192,16.12,16.03,146.704,0.157,49.79,56.87,33.24,34.95
"2018-06-14 09:30:00",344998,0.623,350.6,16.34,70.02,963.0195,0,862.2819,0,-15.64,3.24,182,16.11,16.02,151.2236,0.157,49.73,56.93,33.23,34.97
"2018-06-14 09:40:00",344999,0.681,6.434,16.31,69.25,985.8863,0,862.3441,0,-25.24,3.334,198,16.12,16.02,155.8669,0.158,49.73,56.87,33.23,34.95
"2018-06-14 09:50:00",345000,0.649,355.6,16.47,69.72,1012.474,0,862.5463,0,-9.41,3.179,179,16.13,15.97,160.6978,0.159,49.73,56.87,33.23,34.95
"2018-06-14 10:00:00",345001,0.805,8.39,16.36,65.97,1031.051,0,862.538,0,4.038,3.05,222,16.13,16.01,165.5752,0.161,49.73,56.87,33.23,34.95
"2018-06-14 10:10:00",345002,0.732,22.86,16.49,63.18,1051.132,0,862.5364,0,17.66,2.915,241,16.17,16.05,170.1203,0.162,49.73,56.87,33.23,34.95
"2018-06-14 10:20:00",345003,0.273,271.4,17.13,61.73,1065.536,0,862.5586,0,18.22,2.905,248,16.15,16.06,172.4267,0.162,49.68,56.87,33.22,34.95
"2018-06-14 10:30:00",345004,0.363,192.1,17.97,61.84,1069.074,0,862.3983,0,16.54,2.921,236,16.12,16.01,172.5943,0.161,49.73,56.87,33.23,34.95
"2018-06-14 10:40:00",345005,0.386,159.5,18.37,61.39,1043.234,0,862.2848,0,-12.69,3.201,176,16.22,15.99,173.2399,0.166,49.68,56.87,33.22,34.95
"2018-06-14 10:50:00",345006,0.377,197.3,18.68,61.18,1049.338,0,862.2742,0,17.47,2.906,254,16.2,15.96,174.1966,0.166,49.73,56.87,33.23,34.95
"2018-06-14 11:00:00",345007,0.405,162.8,18.79,58.37,1037.977,0,862.2546,0,30.64,2.782,313,16.28,15.92,171.3269,0.165,49.62,56.81,33.2,34.94
"2018-06-14 11:10:00",345008,0.359,23.22,18.85,57.85,1082.552,0,862.1412,0,318,0,0,16.32,15.9,173.8792,0.161,49.62,56.81,33.2,34.94
"2018-06-14 11:20:00",345009,0.457,298.6,18.69,58.13,1086.659,0,862.013,0,318,0,0,16.35,15.86,175.8742,0.162,49.62,56.81,33.2,34.94
"2018-06-14 11:30:00",345010,0.469,307.9,18.59,56.36,1087.25,0,861.8102,0,-16.32,3.235,182,16.41,15.87,174.8304,0.161,49.62,56.81,33.2,34.94
"2018-06-14 11:40:00",345011,0.585,355.6,18.99,53.31,1112.265,0,861.7672,0,-30.98,3.375,228,16.53,15.87,180.1836,0.162,49.62,56.81,33.2,34.94
"2018-06-14 11:50:00",345012,0.598,321,18.87,51.68,1104.7,0,861.7702,0,28.04,2.803,286,16.6,15.88,182.5274,0.165,49.57,56.81,33.19,34.94
"2018-06-14 12:00:00",345013,0.996,25.21,19.03,50.49,1084.273,0,861.7822,0,18.26,2.896,278,16.69,15.9,179.7854,0.165,49.57,56.81,33.19,34.94
"2018-06-14 12:10:00",345014,0.426,302,19.51,49.57,870.4711,0,861.7308,0,-24.05,3.307,211,16.76,15.88,139.438,0.155,49.57,56.81,33.19,34.94
"2018-06-14 12:20:00",345015,0.477,319.5,19.05,49.93,760.7371,0,861.6539,0,-23.35,3.299,229,16.89,15.9,122.692,0.16,49.57,56.75,33.19,34.93
"2018-06-14 12:30:00",345016,0.562,310.5,19.05,50.7,920.33,0,861.4884,0,3.564,3.04,264,16.97,15.89,152.6134,0.165,49.51,56.75,33.18,34.93
"2018-06-14 12:40:00",345017,0.42,271.7,19.46,51.48,996.12,0,861.7342,0,318,0,0,17.07,15.88,166.5259,0.167,49.51,56.75,33.18,34.93
"2018-06-14 12:50:00",345018,0.619,310.7,19.69,48.69,1018.844,0,861.6903,0,318,0,0,17.2,15.89,169.6003,0.166,49.46,56.75,33.16,34.93
"2018-06-14 13:00:00",345019,0.359,238.4,19.89,49.5,898.4658,0,861.5451,0,-24.93,3.311,207,17.26,15.89,145.306,0.157,49.35,56.75,33.14,34.93
"2018-06-14 13:10:00",345020,0.48,286.6,20.13,48.7,955.6732,0,861.6136,0,-15.44,3.217,192,17.37,15.89,157.7809,0.163,49.41,56.75,33.15,34.93
"2018-06-14 13:20:00",345021,0.46,78.84,20.26,47.51,975.9438,0,861.5094,0,-14.03,3.202,184,17.41,15.88,160.5267,0.164,49.35,56.75,33.14,34.93
"2018-06-14 13:30:00",345022,0.53,219.9,20.49,47.41,1036.403,0,861.5547,0,-25.33,3.312,205,17.5,15.85,173.7565,0.167,49.35,56.7,33.14,34.91
"2018-06-14 13:40:00",345023,0.377,90.3,20.67,47.74,864.6486,0,861.5239,0,18.1,2.893,284,17.59,15.84,140.1274,0.161,49.35,56.7,33.14,34.91
"2018-06-14 13:50:00",345024,0.346,150.5,20.5,48.48,815.4814,0,861.3355,0,-10.84,3.171,169,17.66,15.84,131.584,0.161,49.3,56.7,33.12,34.91
"2018-06-14 14:00:00",345025,0.35,263.1,20.59,42.27,831.3936,0,861.2692,0,-8.59,3.151,185,17.71,15.82,134.7663,0.162,49.3,56.7,33.12,34.91
"2018-06-14 14:10:00",345026,0.468,306.9,20.29,38.09,713.8021,0,861.2726,0,26.61,2.813,259,17.83,15.81,112.3575,0.157,49.35,56.7,33.14,34.91
"2018-06-14 14:20:00",345027,0.522,333.1,20.23,37.57,747.8025,0,861.2065,0,-19.24,3.252,176,17.9,15.84,118.8513,0.159,49.3,56.7,33.12,34.91
"2018-06-14 14:30:00",345028,0.277,212.7,20.67,39.84,714.4393,0,861.247,0,-16.28,3.223,200,18,15.8,110.1823,0.154,49.24,56.64,33.11,34.9
"2018-06-14 14:40:00",345029,0.454,330.4,20.38,36.29,684.0985,0,861.2754,0,28.72,2.792,267,18.01,15.8,101.8575,0.148,49.24,56.64,33.11,34.9
"2018-06-14 14:50:00",345030,0.357,292.5,20.12,40.46,593.1903,0,861.2841,0,-15.75,3.221,182,18.13,15.81,83.42626,0.141,49.24,56.7,33.11,34.91
"2018-06-14 15:00:00",345031,0.27,342.8,20.2,41.64,642.334,0,861.2797,0,16.92,2.904,288,18.17,15.84,81.48929,0.127,49.19,56.7,33.09,34.91
"2018-06-14 15:10:00",345032,0.328,195.5,20.22,46.12,597.5187,0,861.2797,0,-11.04,3.175,185,18.23,15.88,62.88678,0.105,49.19,56.7,33.09,34.91
"2018-06-14 15:20:00",345033,0.143,282.6,20.07,47.83,443.9236,0,861.2919,0,24.37,2.835,334,18.33,15.92,46.05031,0.105,49.19,56.7,33.09,34.91
"2018-06-14 15:30:00",345034,0.546,21.24,19.63,51.18,328.7718,0,861.3834,0,-12.44,3.193,174,18.33,15.97,40.12362,0.125,49.19,56.64,33.09,34.9
"2018-06-14 15:40:00",345035,0.29,80.1,19.38,56.65,252.6897,0,861.546,0,26.6,2.816,374,18.41,15.97,36.43264,0.143,49.19,56.64,33.09,34.9
"2018-06-14 15:50:00",345036,0.113,208.6,19.24,57.94,261.8512,0,861.5574,0,18.32,2.896,284,18.4,15.97,39.9266,0.152,49.19,56.64,33.09,34.9
"2018-06-14 16:00:00",345037,0.248,332,19.16,60.28,245.0139,0,861.5872,0,29.73,2.787,476,18.51,15.95,36.9215,0.151,49.13,56.64,33.08,34.9
"2018-06-14 16:10:00",345038,0.21,95.5,18.85,61.77,231.7099,0,861.8133,0,28.17,2.804,305,18.55,16,33.86713,0.146,49.13,56.64,33.08,34.9
"2018-06-14 16:20:00",345039,0.286,295.8,18.28,63.27,214.7821,0,861.8075,0,15.79,2.927,233,18.6,16.02,31.55172,0.147,49.08,56.58,33.07,34.88
"2018-06-14 16:30:00",345040,0.19,9.51,18.04,65.62,191.1454,0,861.7,0,-13.28,3.209,176,18.6,16.03,27.7887,0.145,49.08,56.64,33.07,34.9
"2018-06-14 16:40:00",345041,0.133,271.6,17.55,66.63,176.8903,0,861.6809,0,-14.79,3.227,170,18.66,16.08,25.79162,0.146,49.08,56.58,33.07,34.88
"2018-06-14 16:50:00",345042,0.227,310.6,17.25,68.11,181.9878,0,861.6769,0,15.84,2.93,227,18.67,16.1,27.45522,0.151,49.08,56.58,33.07,34.88
"2018-06-14 17:00:00",345043,0.046,83.8,17.24,69.74,145.4519,0,861.8459,0,16.23,2.928,240,18.66,16.06,20.6871,0.141,49.03,56.58,33.05,34.88
"2018-06-14 17:10:00",345044,0.149,220.8,16.72,71.24,112.5869,0,861.8419,0,16.27,2.93,238,18.67,16.06,15.34764,0.136,49.08,56.58,33.07,34.88
"2018-06-14 17:20:00",345045,0.041,301.9,16.46,72.9,107.7802,0,861.9114,0,16.36,2.93,241,18.67,16.06,14.86258,0.138,49.03,56.58,33.05,34.88
"2018-06-14 17:30:00",345046,0.13,245.6,16.2,73.04,80.43325,0,862.1578,0,17.98,2.916,262,18.68,16.06,10.28102,0.128,49.08,56.52,33.07,34.87
"2018-06-14 17:40:00",345047,0.035,285.5,15.83,74.98,54.68989,0,862.3622,0,17.99,2.917,249,18.67,16.1,6.862859,0.125,49.03,56.52,33.05,34.87
"2018-06-14 17:50:00",345048,0.027,251.1,15.72,75.43,43.09949,0,862.4864,0,16.06,2.936,230,18.67,16.15,5.233356,0.121,48.97,56.52,33.04,34.87
"2018-06-14 18:00:00",345049,0.047,206.5,15.65,74.33,38.89408,0,862.5349,0,15.95,2.938,233,18.67,16.21,4.755874,0.122,48.97,56.52,33.04,34.87
"2018-06-14 18:10:00",345050,0.06,225.4,15.5,75.58,30.67586,0,862.6402,0,17.7,2.921,256,18.68,16.23,3.789541,0.123,48.97,56.52,33.04,34.87
"2018-06-14 18:20:00",345051,0.134,34.79,15.13,75.7,20.16628,0,862.7202,0,15.65,2.944,254,18.71,16.23,2.300251,0.114,48.97,56.52,33.04,34.87
"2018-06-14 18:30:00",345052,0.138,160.5,15.05,76.29,10.78863,0,862.8572,0,15.74,2.942,266,18.72,16.18,1.129283,0.106,48.97,56.46,33.04,34.86
"2018-06-14 18:40:00",345053,0.194,57.12,15.04,76.69,7.420375,0,862.9982,0,-15.7,3.249,190,18.73,16.2,1.011807,0.136,48.97,56.46,33.04,34.86
"2018-06-14 18:50:00",345054,0.136,86.2,14.93,76.91,4.637734,0,863.072,0,15.43,2.947,244,18.7,16.23,0.5835893,0.123,48.92,56.46,33.03,34.86
"2018-06-14 19:00:00",345055,0.262,69.19,14.74,77.97,1.591765,0,863.1098,0,-15.37,3.247,194,18.6,16.29,0.1629503,0.078,48.97,56.46,33.04,34.86
"2018-06-14 19:10:00",345056,0.189,65.47,14.69,77.73,0.0471634,0,863.2047,0,17.62,2.927,259,18.63,16.32,0,0,48.92,56.46,33.03,34.86
"2018-06-14 19:20:00",345057,0.189,75.77,14.56,78.73,0,0,863.35,0,16.24,2.94,261,18.67,16.32,0.03789541,0,48.92,56.46,33.03,34.86
"2018-06-14 19:30:00",345058,0.375,85,14.44,78.86,0,0,863.3626,0,17.3,2.931,267,18.59,16.34,0.007579082,0,48.92,56.41,33.03,34.84
"2018-06-14 19:40:00",345059,0.384,34.11,14.31,78.87,0,0,863.3626,0,16.63,2.938,248,18.52,16.38,0.03031633,0,48.92,56.46,33.03,34.86
"2018-06-14 19:50:00",345060,0.076,76.32,14.32,79.9,0,0,863.39,0,16.42,2.94,245,18.56,16.37,0.1364235,0,48.92,56.41,33.03,34.84
"2018-06-14 20:00:00",345061,0,0,14.3,80.1,0,0,863.3647,0,16.42,2.94,247,18.57,16.4,0.04547449,0,48.92,56.46,33.03,34.86
"2018-06-14 20:10:00",345062,0.012,137.3,14.19,80.9,0,0,863.47,0,17.09,2.934,267,18.47,16.41,0.003789541,0,48.86,56.41,33.01,34.84
"2018-06-14 20:20:00",345063,0,0,13.96,81.8,0,0,863.4679,0,17.38,2.932,276,18.49,16.41,0,0,48.92,56.46,33.03,34.86
"2018-06-14 20:30:00",345064,0,0,13.94,82.2,0,0,863.4216,0,-19.22,3.29,189,18.49,16.41,0,0,48.92,56.41,33.03,34.84
"2018-06-14 20:40:00",345065,0,0,13.96,82.2,0,0,863.6701,0,16.34,2.943,243,18.45,16.44,0.1364235,0,48.92,56.41,33.03,34.84
"2018-06-14 20:50:00",345066,0.005,173.5,13.86,82.6,0,0,863.7038,0,16.73,2.939,243,18.39,16.49,0.07958036,0,48.86,56.41,33.01,34.84
"2018-06-14 21:00:00",345067,0,0,13.9,83.6,0,0,863.8492,0,18.39,2.923,271,18.39,16.51,0.231162,0,48.92,56.41,33.03,34.84
"2018-06-14 21:10:00",345068,0,0,13.86,84.8,0,0,863.8682,0,-15.99,3.258,192,18.32,16.53,0.231162,0,48.86,56.41,33.01,34.84
"2018-06-14 21:20:00",345069,0.015,105,13.8,85.1,0,0,863.8723,0,17.29,2.934,251,18.31,16.54,0.1553712,0,48.86,56.41,33.01,34.84
"2018-06-14 21:30:00",345070,0,0,13.74,85.7,0,0,863.6933,0,-15.92,3.258,174,18.31,16.53,0.09094898,0,48.86,56.35,33.01,34.83
"2018-06-14 21:40:00",345071,0,0,13.74,85.7,0,0,863.5985,0,16.19,2.945,221,18.25,16.51,0.2084248,0,48.86,56.41,33.01,34.84
"2018-06-14 21:50:00",345072,0,0,13.75,85.9,0,0,863.4616,0,-15.79,3.257,170,18.25,16.49,0.2273725,0,48.86,56.41,33.01,34.84
"2018-06-14 22:00:00",345073,0,0,13.74,86.2,0,0,863.449,0,17.36,2.934,229,18.23,16.53,0.2273725,0,48.92,56.35,33.03,34.83
"2018-06-14 22:10:00",345074,0,0,13.66,86.9,0,0,863.6153,0,16.23,2.945,239,18.22,16.56,0.1629503,0,48.86,56.35,33.01,34.83
"2018-06-14 22:20:00",345075,0.085,75.99,13.62,89.1,0,0,863.6153,0,16.38,2.944,233,18.18,16.58,0.2084248,0,48.86,56.35,33.01,34.83
"2018-06-14 22:30:00",345076,0.13,37.29,13.59,91.5,0,0,863.6153,0,16.23,2.945,233,18.15,16.58,0.2273725,0,48.86,56.35,33.01,34.83
"2018-06-14 22:40:00",345077,0.012,43.72,13.6,91.5,0,0,863.6153,0,-18.97,3.289,172,18.12,16.58,0.1781084,0,48.86,56.35,33.01,34.83
"2018-06-14 22:50:00",345078,0.092,28.61,13.52,94.2,0,0,863.6153,0,26.63,2.844,298,18.08,16.57,0.2463202,0,48.92,56.35,33.03,34.83
"2018-06-14 23:00:00",345079,0.035,21.62,13.56,97.3,0,0,863.489,0,24.93,2.861,318,18.06,16.55,0.3789541,0,48.86,56.35,33.01,34.83
"2018-06-14 23:10:00",345080,0.103,27.58,13.3,98.5,0,0,863.3879,0,16.23,2.947,278,18.06,16.54,0.3334796,0,48.86,56.35,33.01,34.83
"2018-06-14 23:20:00",345081,0.166,33.81,13.26,100,0,0,863.4385,0,-24.14,3.341,194,18.04,16.54,0.41306,0,48.86,56.29,33.01,34.82
"2018-06-14 23:30:00",345082,0.018,351.8,13.21,100,0,0,863.3626,0,-24.24,3.343,193,17.98,16.53,0.4547449,0,48.86,56.29,33.01,34.82
"2018-06-14 23:40:00",345083,0,0,13.09,100,0,0,863.35,0,-17.23,3.275,170,17.95,16.54,0.3637959,0,48.86,56.29,33.01,34.82
"2018-06-14 23:50:00",345084,0,0,13.02,100,0,0,863.3416,0,-24.09,3.342,176,17.91,16.54,0.4812717,0,48.86,56.29,33.01,34.82
